Hourly Weather Roundup
Issued by NWS Central Illinois

Home | Current Version | Previous Version | Text Only | Print | Product List | Glossary On
Versions: 1 2 3 4 5 6 7 8 9 10 11 12 13 14 15 16 17 18 19 20 21 22 23 24 25 26 27 28 29 30 31 32 33 34 35 36 37 38 39 40 41 42 43 44 45 46 47 48 49 50
000
NZUS43 KILX 090510
HWRILX

AREA WEATHER ROUNDUP
NATIONAL WEATHER SERVICE, LINCOLN IL
1100 PM CST THU DEC 08 2016


CITY           SKY/WX    TMP DP  RH WIND       PRES   REMARKS
BLOOMINGTON    FLURRIES  21  14  74 W14G22    30.49R WCI   8
CHAMPAIGN      FLURRIES  21  14  74 W15       30.51R WCI   8
DANVILLE       FLURRIES  21  16  80 W8G16     30.47R WCI  12
DECATUR        CLOUDY    21  12  68 NW10G21   30.53S WCI  10
EFFINGHAM      MOCLDY    23  16  75 W10       30.57R WCI  12
FLORA          MOCLDY    26  15  63 NW13      30.57R WCI  15
GALESBURG      CLOUDY    22  17  80 W9        30.51S WCI  12
JACKSONVILLE   CLOUDY    22  14  71 W10       30.56S WCI  11
LACON          CLOUDY    22  15  72 W9G17     30.50S WCI  12
LAWRENCEVILLE  FLURRIES  24  15  68 NW13      30.55R WCI  12
LITCHFIELD     CLOUDY    21  15  80 NW6       30.56R WCI  13
$$


CITY           SKY/WX    TMP DP  RH WIND       PRES   REMARKS
LINCOLN        CLOUDY    23  15  71 NW7       30.53S WCI  15
MACOMB         CLOUDY    23  15  73 W14       30.55S WCI  11
MATTOON        FLURRIES  20  11  68 NW14      30.52R WCI   7
MT CARMEL AP   CLOUDY    25  14  61 NW13G21   30.55R WCI  14
OLNEY-NOBLE AP CLOUDY    25  16  68 NW14      30.56R WCI  13
PARIS          FLURRIES  21  17  86 W12       30.52S WCI   9
PEORIA         CLOUDY    22  14  71 NW12      30.52S WCI  10
PONTIAC        CLOUDY    24  16  73 W13       30.49R WCI  12
RANTOUL        FLURRIES  24  17  77 W14       30.49S WCI  11
SPRINGFIELD    CLOUDY    23  14  68 W7        30.55S WCI  15
TAYLORVILLE    CLOUDY    21  13  72 CALM      30.55S
$$

...REGIONAL REPORTS...


CITY           SKY/WX    TMP DP  RH WIND       PRES   REMARKS
CHICAGO O`HARE PTCLDY    22  16  78 W10       30.40R WCI  11
KANKAKEE       MIX PCPN  23  16  74 W14       30.46R WCI  11
MOLINE         CLOUDY    23  11  60 W13       30.51R WCI  11
MOUNT STERLING PTCLDY    19  12  74 W7        30.55S WCI  10
MOUNT VERNON   NOT AVBL
PITTSFIELD     CLOUDY    22  14  71 W5        30.58S WCI  15
QUINCY         CLEAR     19  12  74 W9        30.57R WCI   8
ROCKFORD       CLOUDY    22  16  78 W12       30.45R WCI  10
$$


CITY           SKY/WX    TMP DP  RH WIND       PRES   REMARKS
BURLINGTON     CLOUDY    22  14  71 NW8       30.54R WCI  12
CEDAR RAPIDS   CLOUDY    19  14  81 NW16      30.51R WCI   4
DES MOINES     PTCLDY    17   9  70 NW13      30.59R WCI   4
KIRKSVILLE     CLEAR     16  10  77 W6        30.59R WCI   7
OTTUMWA        NOT AVBL
ST LOUIS       CLEAR     22  11  62 W9        30.59S WCI  12
$$


CITY           SKY/WX    TMP DP  RH WIND       PRES   REMARKS
TERRE HAUTE    FLURRIES  21  14  74 W7        30.52S WCI  12
EVANSVILLE     CLOUDY    27  14  58 NW7       30.55R WCI  19
INDIANAPOLIS   FLURRIES  21  15  78 W10       30.46S WCI  10
LAFAYETTE      FLURRIES  21  16  81 W12       30.47R WCI   9
MADISON        MOCLDY    21  16  81 W7        30.39R WCI  12
MILWAUKEE      MOCLDY    25  15  66 W13       30.36R WCI  14
$$






USA.gov is the U.S. government's official web portal to all federal, state and local government web resources and services.